Concord, CA

1:54 PM PDT on March 27, 2017 (GMT -0700)
Buchanan

Weather History for KCCR - November, 2012

Change the Weather History Date:

Tuesday, November 20, 2012

  Actual Average Record
Temperature  
Mean Temperature 61 °F 52 °F  
Max Temperature 67 °F 62 °F 75 °F (2015)
Min Temperature 55 °F 43 °F 33 °F (2000)
Degree Days  
Heating Degree Days 4    
Month to date heating degree days 177  
Since 1 July heating degree days 275  
Cooling Degree Days 0    
Month to date cooling degree days 0  
Year to date cooling degree days 791  
Growing Degree Days 10 (Base 50)    
Moisture  
Dew Point 52 °F    
Average Humidity 75    
Maximum Humidity 86    
Minimum Humidity 63    
Precipitation  
Precipitation 0.09 in - 0.61 in (2010)
Month to date precipitation 0.97  
Year to date precipitation 11.69  
Since 1 July precipitation 2.02  
Sea Level Pressure  
Sea Level Pressure 30.06 in    
Wind  
Wind Speed 11 mph (SSW)    
Max Wind Speed 21 mph    
Max Gust Speed 26 mph    
Visibility 9 miles    
Events Rain    
T = Trace of Precipitation, MM = Missing Value Source: NWS Daily Summary

Daily Weather History Graph

Daily Weather History Graph

Search for Another Location

Airport or City:

Trip Planner

Search our weather history database for the weather conditions in past years. The results will help you decide how hot, cold, wet, or windy it might be!

Date:

Astronomy

Nov. 20, 2012 Rise Set
Actual Time 6:54 AM PST 4:52 PM PST
Civil Twilight 6:26 AM PST 5:21 PM PST
Nautical Twilight 5:54 AM PST 5:53 PM PST
Astronomical Twilight 5:22 AM PST 6:24 PM PST
Moon 12:35 PM PST (11/20) No Moon Set
Length of Visible Light 10h 54m
Length of Day
9h 57m
First Quarter, 52% of the Moon is Illuminated
Nov 20
First Quarter
Nov 28
Full
Dec 6
Last Quarter
Dec 13
New
Dec 19
First Quarter

Hourly Weather History & Observations

Time (PST) Temp. Dew Point Humidity Pressure Visibility Wind Dir Wind Speed Gust Speed Precip Events Conditions
12:53 AM 55.0 °F 46.9 °F 74% 30.12 in 10.0 mi SSW 6.9 mph - N/A   Overcast
1:53 AM 57.9 °F 48.0 °F 70% 30.11 in 10.0 mi South 8.1 mph - N/A   Overcast
2:53 AM 57.9 °F 48.0 °F 70% 30.09 in 10.0 mi South 10.4 mph - N/A   Partly Cloudy
3:35 AM 57.2 °F 48.2 °F 72% 30.13 in 10.0 mi South 6.9 mph - N/A   Mostly Cloudy
3:50 AM 55.4 °F 48.2 °F 77% 30.13 in 10.0 mi SSW 5.8 mph - N/A   Scattered Clouds
3:53 AM 55.9 °F 48.0 °F 75% 30.09 in 10.0 mi SSW 5.8 mph - N/A   Scattered Clouds
4:53 AM 55.9 °F 48.0 °F 75% 30.08 in 10.0 mi SW 6.9 mph - N/A   Mostly Cloudy
5:29 AM 57.2 °F 48.2 °F 72% 30.12 in 10.0 mi SSW 5.8 mph - N/A   Mostly Cloudy
5:53 AM 57.0 °F 48.9 °F 74% 30.09 in 10.0 mi SW 6.9 mph - N/A   Overcast
6:21 AM 55.4 °F 50.0 °F 82% 30.13 in 10.0 mi South 6.9 mph - N/A   Mostly Cloudy
6:53 AM 57.9 °F 50.0 °F 75% 30.09 in 10.0 mi South 8.1 mph - N/A   Overcast
7:53 AM 57.9 °F 54.0 °F 87% 30.09 in 10.0 mi South 9.2 mph - 0.00 in   Overcast
8:53 AM 61.0 °F 53.1 °F 75% 30.09 in 10.0 mi South 8.1 mph - N/A   Overcast
9:00 AM 60.8 °F 53.6 °F 77% 30.12 in 10.0 mi South 9.2 mph - N/A   Mostly Cloudy
9:53 AM 63.0 °F 54.0 °F 72% 30.07 in 10.0 mi South 11.5 mph 18.4 mph N/A   Mostly Cloudy
10:46 AM 66.2 °F 53.6 °F 64% 30.12 in 10.0 mi SSW 9.2 mph 19.6 mph N/A   Mostly Cloudy
11:35 AM 64.4 °F 53.6 °F 68% 30.10 in 10.0 mi SSW 16.1 mph - N/A   Overcast
11:53 AM 66.0 °F 53.1 °F 63% 30.04 in 10.0 mi South 13.8 mph 26.5 mph N/A   Mostly Cloudy
12:53 PM 66.0 °F 53.1 °F 63% 30.02 in 10.0 mi SSW 13.8 mph - N/A   Mostly Cloudy
1:53 PM 66.0 °F 53.1 °F 63% 30.01 in 10.0 mi South 13.8 mph 21.9 mph N/A   Overcast
2:53 PM 64.0 °F 55.0 °F 73% 30.01 in 10.0 mi SSW 16.1 mph 20.7 mph N/A   Overcast
3:53 PM 62.1 °F 55.9 °F 80% 30.00 in 10.0 mi SSW 13.8 mph - N/A   Overcast
4:53 PM 62.1 °F 54.0 °F 75% 29.99 in 10.0 mi SSW 11.5 mph 19.6 mph N/A   Partly Cloudy
5:53 PM 62.1 °F 54.0 °F 75% 29.99 in 10.0 mi South 15.0 mph - N/A   Mostly Cloudy
6:53 PM 62.1 °F 53.1 °F 72% 29.99 in 10.0 mi SSW 11.5 mph - N/A   Mostly Cloudy
7:53 PM 62.1 °F 53.1 °F 72% 29.99 in 10.0 mi South 12.7 mph - N/A   Overcast
8:53 PM 62.1 °F 53.1 °F 72% 29.99 in 10.0 mi South 11.5 mph - N/A   Mostly Cloudy
9:53 PM 62.1 °F 53.1 °F 72% 30.00 in 10.0 mi SSW 11.5 mph - 0.00 in Rain Light Rain
10:53 PM 57.9 °F 55.9 °F 93% 30.01 in 7.0 mi SSW 8.1 mph - 0.01 in Rain Light Rain
11:26 PM 57.2 °F 55.4 °F 94% 30.07 in 3.0 mi West 8.1 mph - 0.04 in Rain Rain
11:30 PM 57.2 °F 57.2 °F 100% 30.07 in 2.5 mi Variable 3.5 mph - 0.05 in Rain Rain
11:38 PM 57.2 °F 57.2 °F 100% 30.06 in 3.0 mi Calm Calm - 0.06 in Rain Light Rain
11:53 PM 57.9 °F 55.9 °F 93% 30.02 in 4.0 mi South 5.8 mph - 0.07 in Rain Light Rain